Aérodrome :
LOGIN :

S'inscrire | Disclaimer

   EN    FR    IT 

 










Légende :    VFR   VFR Marginal   IFR   IFR Intensif   IFR Très Intensif
Visi : 
Plafond : 
>= 8 km
>= 3000ft
5 à 8 km
1000 à 3000 ft
1500m à 5 km
500 à 1000 ft
800 à 1500m
200 à 500 ft
< 800m
< 200 ft
Symboles :   Orages  Brouillard  Fortes neiges  Fortes précipitations  Vent > 20 kt
SIGMETs :   Divers  Orages  Givrage  Turbulence  Onde Orograph.  Cendres Volcan.







- Altitude de l'aérodrome : 2026 ft
- Code IATA : TOJ


LETO - Madrid Torrejon

DERNIER METAR :
  • 221500Z 09003KT 010V150 CAVOK 29/09 Q1016 NOSIG

METARs EXPIRÉS :
  • 221300Z 14003KT 140V260 CAVOK 28/08 Q1017 NOSIG
  • 221400Z 19004KT 140V260 CAVOK 28/08 Q1017 NOSIG

TAF TAF LETO
Valide du 22 à 12h jusqu'au 23 à 12h UTC


221100Z 2212/2312 VRB05KT CAVOK TX30/2215Z TN13/2306Z
PROB30
TEMPO 2212/2216 FEW050TCU
BECMG 2221/2223 03010KT
Pas de NOTAMs connus pour ce terrain.



MET'MAP, la Météo Aéronautique d'un coup d'oeil ! - Copyright ORBIFLY Décembre 2007 - Disclaimer

ORBIFLY MET'MAP TEAM :

Programmation & Développement : Alexandra Zaïnal
Conception & Développement : Baudouin d'Aumeries
Co-Programmation & Développement : Marc-Olivier Méhu
Soutien technique & logistique : Manuel Goepfert

Contact : metmap@orbifly.com




SOURCES & CREDITS :

   NOAA